Location: Shenandoah County Park
(38.9356°N, 78.4524°W)
Time: 12:26:12
(UTC-04:00)

Envisat - Pass Details

Date: 01 June 2024
Orbit: 762 x 764 km, 98.3° (Epoch: 14 June)

Event Time Altitude Azimuth Distance (km) Brightness Sun altitude
Rises 03:35:16 0° 26° (NNE) 3,232 7.8 -20.3°
Reaches altitude 10° 03:37:58 10° 40° (NE) 2,301 6.7 -20.0°
Maximum altitude 03:42:05 25° 95° (E) 1,514 4.8 -19.5°
Drops below altitude 10° 03:46:11 10° 149° (SSE) 2,288 5.2 -19.0°
Enters shadow 03:46:51 - 154° (SSE) 2,504 5.4 -19.0°
